• In Österreich
  • Länderverzeichnis
  • Für 7 Tage
  • Wassertemperatur
  • Satellitenkarten
  • Wetterkarte
  • News
  • Widgets
  • user-avatar
    Anmelden

    Stündliche Wetter Lahaur

    Heute, 22 Oktober, Montag

    Zeit Temperatur Niederschläge Wind Luftdruck Luftfeuchtigkeit
    00:00 +24°C° 0 mm 1 m/S 742 mmHg 22%
    01:00 +23°C° 0 mm 1 m/S 742 mmHg 23%
    02:00 +23°C° 0 mm 1 m/S 742 mmHg 24%
    03:00 +22°C° 0 mm 1 m/S 742 mmHg 24%
    04:00 +22°C° 0 mm 1 m/S 742 mmHg 25%
    05:00 +21°C° 0 mm 1 m/S 741 mmHg 26%
    06:00 +23°C° 0 mm 1 m/S 742 mmHg 25%
    07:00 +24°C° 0 mm 1 m/S 742 mmHg 24%
    08:00 +25°C° 0 mm 1 m/S 742 mmHg 22%
    09:00 +26°C° 0 mm 0 m/S 742 mmHg 20%
    10:00 +28°C° 0 mm 0 m/S 742 mmHg 17%
    11:00 +31°C° 0 mm 0 m/S 742 mmHg 14%
    12:00 +34°C° 0 mm 1 m/S 741 mmHg 14%
    13:00 +35°C° 0 mm 2 m/S 741 mmHg 13%
    14:00 +35°C° 0 mm 2 m/S 740 mmHg 12%
    15:00 +34°C° 0 mm 2 m/S 740 mmHg 14%
    16:00 +32°C° 0 mm 1 m/S 740 mmHg 15%
    17:00 +31°C° 0 mm 1 m/S 740 mmHg 16%
    18:00 +30°C° 0 mm 1 m/S 740 mmHg 17%
    19:00 +28°C° 0 mm 1 m/S 740 mmHg 19%
    20:00 +27°C° 0 mm 2 m/S 741 mmHg 20%
    21:00 +26°C° 0 mm 2 m/S 741 mmHg 21%
    22:00 +25°C° 0 mm 2 m/S 741 mmHg 23%
    23:00 +25°C° 0 mm 3 m/S 741 mmHg 25%

    Morgen, 23 Oktober, Dienstag

    Zeit Temperatur Niederschläge Wind Luftdruck Luftfeuchtigkeit
    00:00 +24°C° 0 mm 3 m/S 741 mmHg 25%
    01:00 +23°C° 0 mm 2 m/S 740 mmHg 26%
    02:00 +23°C° 0 mm 2 m/S 740 mmHg 27%
    03:00 +21°C° 0 mm 2 m/S 740 mmHg 26%
    04:00 +21°C° 0 mm 2 m/S 740 mmHg 26%
    05:00 +20°C° 0 mm 2 m/S 741 mmHg 25%
    06:00 +23°C° 0 mm 2 m/S 741 mmHg 23%
    07:00 +24°C° 0 mm 2 m/S 741 mmHg 21%
    08:00 +25°C° 0 mm 3 m/S 742 mmHg 19%
    09:00 +27°C° 0 mm 3 m/S 742 mmHg 17%
    10:00 +29°C° 0 mm 3 m/S 742 mmHg 15%
    11:00 +33°C° 0 mm 3 m/S 742 mmHg 13%
    12:00 +34°C° 0 mm 3 m/S 741 mmHg 12%
    13:00 +34°C° 0 mm 2 m/S 741 mmHg 12%
    14:00 +35°C° 0 mm 2 m/S 740 mmHg 11%
    15:00 +34°C° 0 mm 2 m/S 740 mmHg 13%
    16:00 +32°C° 0 mm 2 m/S 740 mmHg 14%
    17:00 +31°C° 0 mm 2 m/S 740 mmHg 15%
    18:00 +29°C° 0 mm 2 m/S 740 mmHg 17%
    19:00 +28°C° 0 mm 3 m/S 741 mmHg 19%
    20:00 +27°C° 0 mm 3 m/S 741 mmHg 21%
    21:00 +26°C° 0 mm 3 m/S 741 mmHg 22%
    22:00 +25°C° 0 mm 3 m/S 741 mmHg 24%
    23:00 +24°C° 0 mm 3 m/S 741 mmHg 25%

    übermorgen, 24 Oktober, Mittwoch

    Zeit Temperatur Niederschläge Wind Luftdruck Luftfeuchtigkeit
    00:00 +24°C° 0 mm 3 m/S 741 mmHg 25%
    01:00 +22°C° 0 mm 3 m/S 741 mmHg 26%
    02:00 +21°C° 0 mm 2 m/S 741 mmHg 26%
    03:00 +21°C° 0 mm 2 m/S 741 mmHg 26%
    04:00 +21°C° 0 mm 2 m/S 740 mmHg 25%
    05:00 +20°C° 0 mm 2 m/S 740 mmHg 25%
    06:00 +21°C° 0 mm 2 m/S 741 mmHg 23%
    07:00 +23°C° 0 mm 2 m/S 741 mmHg 22%
    08:00 +24°C° 0 mm 2 m/S 742 mmHg 21%
    09:00 +27°C° 0 mm 2 m/S 742 mmHg 18%
    10:00 +29°C° 0 mm 3 m/S 742 mmHg 16%
    11:00 +33°C° 0 mm 3 m/S 742 mmHg 13%
    12:00 +34°C° 0 mm 3 m/S 741 mmHg 12%
    13:00 +34°C° 0 mm 3 m/S 741 mmHg 12%
    14:00 +35°C° 0 mm 3 m/S 740 mmHg 11%
    15:00 +34°C° 0 mm 2 m/S 740 mmHg 13%
    16:00 +31°C° 0 mm 2 m/S 740 mmHg 14%
    17:00 +30°C° 0 mm 2 m/S 740 mmHg 15%
    18:00 +29°C° 0 mm 2 m/S 740 mmHg 16%
    19:00 +27°C° 0 mm 2 m/S 741 mmHg 17%
    20:00 +26°C° 0 mm 2 m/S 741 mmHg 18%
    21:00 +25°C° 0 mm 2 m/S 741 mmHg 19%
    22:00 +25°C° 0 mm 2 m/S 742 mmHg 20%
    23:00 +24°C° 0 mm 2 m/S 742 mmHg 21%

    25 Oktober, Donnerstag

    Zeit Temperatur Niederschläge Wind Luftdruck Luftfeuchtigkeit
    00:00 +24°C° 0 mm 2 m/S 742 mmHg 22%
    01:00 +23°C° 0 mm 2 m/S 741 mmHg 23%
    02:00 +21°C° 0 mm 2 m/S 741 mmHg 24%
    03:00 +21°C° 0 mm 2 m/S 741 mmHg 24%
    04:00 +21°C° 0 mm 1 m/S 741 mmHg 24%
    05:00 +21°C° 0 mm 1 m/S 741 mmHg 24%
    06:00 +22°C° 0 mm 1 m/S 742 mmHg 23%
    07:00 +23°C° 0 mm 1 m/S 742 mmHg 21%
    08:00 +24°C° 0 mm 1 m/S 743 mmHg 20%
    09:00 +27°C° 0 mm 1 m/S 743 mmHg 18%
    10:00 +29°C° 0 mm 1 m/S 743 mmHg 15%
    11:00 +32°C° 0 mm 1 m/S 743 mmHg 13%
    12:00 +33°C° 0 mm 1 m/S 743 mmHg 13%
    13:00 +33°C° 0 mm 1 m/S 742 mmHg 12%
    14:00 +35°C° 0 mm 2 m/S 742 mmHg 12%
    15:00 +33°C° 0 mm 1 m/S 742 mmHg 13%
    16:00 +31°C° 0 mm 1 m/S 742 mmHg 14%
    17:00 +30°C° 0 mm 1 m/S 742 mmHg 16%
    18:00 +29°C° 0 mm 1 m/S 742 mmHg 16%
    19:00 +28°C° 0 mm 1 m/S 743 mmHg 17%
    20:00 +27°C° 0 mm 1 m/S 743 mmHg 18%
    21:00 +26°C° 0 mm 1 m/S 743 mmHg 19%
    22:00 +25°C° 0 mm 2 m/S 743 mmHg 19%
    23:00 +25°C° 0 mm 2 m/S 744 mmHg 20%

    26 Oktober, Freitag

    Zeit Temperatur Niederschläge Wind Luftdruck Luftfeuchtigkeit
    00:00 +24°C° 0 mm 2 m/S 743 mmHg 21%
    01:00 +23°C° 0 mm 1 m/S 743 mmHg 22%
    02:00 +23°C° 0 mm 1 m/S 743 mmHg 22%
    03:00 +22°C° 0 mm 1 m/S 743 mmHg 23%
    04:00 +22°C° 0 mm 1 m/S 743 mmHg 23%
    05:00 +21°C° 0 mm 1 m/S 743 mmHg 24%
    06:00 +23°C° 0 mm 1 m/S 744 mmHg 22%
    07:00 +24°C° 0 mm 1 m/S 744 mmHg 21%
    08:00 +25°C° 0 mm 1 m/S 745 mmHg 20%
    09:00 +28°C° 0 mm 1 m/S 745 mmHg 17%
    10:00 +28°C° 0 mm 0 m/S 745 mmHg 15%
    11:00 +31°C° 0 mm 0 m/S 745 mmHg 13%
    12:00 +33°C° 0 mm 1 m/S 744 mmHg 13%
    13:00 +34°C° 0 mm 1 m/S 744 mmHg 12%
    14:00 +35°C° 0 mm 2 m/S 743 mmHg 12%
    15:00 +34°C° 0 mm 2 m/S 743 mmHg 13%
    16:00 +32°C° 0 mm 2 m/S 743 mmHg 15%
    17:00 +31°C° 0 mm 1 m/S 742 mmHg 16%
    18:00 +29°C° 0 mm 1 m/S 743 mmHg 17%
    19:00 +28°C° 0 mm 2 m/S 743 mmHg 18%
    20:00 +27°C° 0 mm 2 m/S 743 mmHg 19%
    21:00 +26°C° 0 mm 2 m/S 743 mmHg 20%
    22:00 +25°C° 0 mm 2 m/S 743 mmHg 20%
    23:00 +25°C° 0 mm 2 m/S 743 mmHg 21%

    27 Oktober, Samstag

    Zeit Temperatur Niederschläge Wind Luftdruck Luftfeuchtigkeit
    00:00 +24°C° 0 mm 2 m/S 743 mmHg 22%
    01:00 +23°C° 0 mm 1 m/S 743 mmHg 23%
    02:00 +23°C° 0 mm 1 m/S 743 mmHg 24%
    03:00 +22°C° 0 mm 1 m/S 743 mmHg 25%
    04:00 +22°C° 0 mm 1 m/S 743 mmHg 26%
    05:00 +22°C° 0 mm 1 m/S 743 mmHg 26%
    06:00 +23°C° 0 mm 1 m/S 743 mmHg 25%
    07:00 +24°C° 0 mm 1 m/S 744 mmHg 24%
    08:00 +25°C° 0 mm 1 m/S 744 mmHg 23%
    09:00 +27°C° 0 mm 1 m/S 744 mmHg 20%
    10:00 +29°C° 0 mm 2 m/S 744 mmHg 18%
    11:00 +32°C° 0 mm 2 m/S 744 mmHg 15%
    12:00 +32°C° 0 mm 1 m/S 744 mmHg 14%
    13:00 +33°C° 0 mm 1 m/S 743 mmHg 13%
    14:00 +34°C° 0 mm 1 m/S 742 mmHg 13%
    15:00 +33°C° 0 mm 1 m/S 742 mmHg 14%
    16:00 +32°C° 0 mm 1 m/S 742 mmHg 15%
    17:00 +30°C° 0 mm 1 m/S 742 mmHg 16%
    18:00 +29°C° 0 mm 1 m/S 742 mmHg 17%
    19:00 +28°C° 0 mm 2 m/S 742 mmHg 18%
    20:00 +26°C° 0 mm 2 m/S 743 mmHg 19%
    21:00 +26°C° 0 mm 2 m/S 743 mmHg 20%
    22:00 +25°C° 0 mm 2 m/S 743 mmHg 21%
    23:00 +24°C° 0 mm 2 m/S 743 mmHg 22%

    28 Oktober, Sonntag

    Zeit Temperatur Niederschläge Wind Luftdruck Luftfeuchtigkeit
    00:00 +24°C° 0 mm 2 m/S 743 mmHg 23%
    01:00 +23°C° 0 mm 1 m/S 743 mmHg 24%
    02:00 +22°C° 0 mm 1 m/S 742 mmHg 25%
    03:00 +22°C° 0 mm 1 m/S 742 mmHg 26%
    04:00 +21°C° 0 mm 1 m/S 742 mmHg 27%
    05:00 +21°C° 0 mm 1 m/S 742 mmHg 28%
    06:00 +22°C° 0 mm 1 m/S 743 mmHg 27%
    07:00 +23°C° 0 mm 1 m/S 743 mmHg 25%
    08:00 +24°C° 0 mm 1 m/S 744 mmHg 24%
    09:00 +27°C° 0 mm 1 m/S 744 mmHg 21%
    10:00 +28°C° 0 mm 0 m/S 744 mmHg 18%
    11:00 +30°C° 0 mm 0 m/S 744 mmHg 15%
    12:00 +31°C° 0 mm 0 m/S 743 mmHg 14%
    13:00 +33°C° 0 mm 1 m/S 743 mmHg 13%
    14:00 +34°C° 0 mm 1 m/S 742 mmHg 11%
    15:00 +33°C° 0 mm 1 m/S 742 mmHg 12%
    16:00 +31°C° 0 mm 1 m/S 742 mmHg 14%
    17:00 +30°C° 0 mm 1 m/S 741 mmHg 15%
    18:00 +29°C° 0 mm 1 m/S 742 mmHg 16%
    19:00 +28°C° 0 mm 1 m/S 742 mmHg 16%
    20:00 +26°C° 0 mm 1 m/S 742 mmHg 17%
    21:00 +26°C° 0 mm 1 m/S 742 mmHg 18%
    22:00 +25°C° 0 mm 1 m/S 742 mmHg 19%
    23:00 +25°C° 0 mm 1 m/S 742 mmHg 20%
    Mehr zeigen